Location: A�t �Alizem
(31.2076°N, 8.7872°W)
Time: 15:10:27
(UTC+00:00)

SKYMED 2 - Pass Details

Date: 27 November 2020
Orbit: 621 x 623 km, 97.9° (Epoch: 26 January)

Event Time Altitude Azimuth Distance (km) Brightness Sun altitude
Rises 18:35:25 0° 11° (N) 2,907 6.7 -13.4°
Reaches altitude 10° 18:37:37 10° 11° (N) 1,997 5.9 -13.8°
Maximum altitude 18:41:58 86° 283° (WNW) 629 3.6 -14.7°
Drops below altitude 10° 18:46:17 10° 194° (SSW) 1,984 6.6 -15.6°
Sets 18:48:28 0° 194° (SSW) 2,886 7.4 -16.1°
